Zurück zum Katalog

CZ-4 DEB

AktivSSO
NORAD 31139·DEBRIS·🇨🇳 China

Gestartet Oct 21, 2003 von Taiyuan Satellite Launch Center

Loading…

Nächste Überflüge (nächste 24 Stunden)

TLE

AktuellSource: Space-Track

Epoche: Sep 14, 2026, 05:55 UTC

1 31139U 03049E   26257.24707948  .00002532  00000-0  43259-3 0  9994
2 31139  98.4820 269.8187 0065739 335.6523  24.1579 14.68465569 25142

Verfolge CZ-4 DEB in Echtzeit mit AllMySat

Download on the App Store